Lapse_Rate
4.8 6.2 5.3 5.3 4.6 4.6 4.4 4.6 5.1 5.0 5.4 4.5 3.8 3.4 4.3 4.6 3.8 4.3 4.8 5.2 4.1 3.8 3.5 3.3 3.5 2.6 2.4 2.4 2.7 1.9 2.0 1.7
3.7 5.4 5.2 5.0 5.1 5.4 5.2 4.9 4.8 5.4 6.0 6.3 5.2 4.5 4.3 4.0 3.5 4.9 4.3 5.0 4.5 3.9 3.3 2.9 2.9 3.1 3.1 2.9 2.2 2.6 2.0 1.5
2.6 3.2 3.6 4.1 4.3 5.0 5.8 5.8 5.6 6.2 6.8 6.8 6.3 4.5 3.6 3.1 3.4 3.5 4.1 4.2 4.1 4.0 3.4 2.6 2.6 3.0 2.7 2.3 2.6 1.7 2.1 1.1
2.4 2.3 1.9 1.8 2.1 3.2 4.9 5.8 5.6 5.9 6.1 4.4 4.3 4.4 3.6 3.1 2.6 2.3 2.6 3.7 4.1 4.1 3.8 3.4 2.8 2.5 2.7 2.1 1.8 2.4 2.0 0.5
2.4 1.7 1.6 -0.2 0.6 2.1 3.5 5.0 5.5 5.6 4.6 4.7 4.7 5.6 5.4 4.8 3.6 3.1 2.4 3.4 3.4 3.6 4.1 3.8 3.0 2.7 2.2 2.6 1.9 1.8 2.2 1.7
1.7 1.2 0.5 -0.5 -0.0 0.5 2.2 3.5 4.3 5.2 5.4 5.1 4.7 4.8 4.7 4.5 3.2 3.2 2.7 2.7 3.3 3.3 4.1 3.2 2.6 2.4 2.2 2.1 1.2 2.0 1.6 1.9
2.9 1.8 2.1 0.9 0.5 0.6 1.4 2.4 3.1 3.8 4.1 4.6 4.5 4.1 4.1 4.7 4.7 4.5 4.1 2.9 2.3 2.3 3.2 3.1 2.8 2.0 1.9 2.1 1.8 1.0 1.7 2.0
3.0 2.1 1.6 0.8 0.9 1.1 1.5 1.7 2.3 3.8 4.3 4.3 4.2 4.5 3.9 5.0 4.7 4.5 3.5 2.9 1.9 2.0 2.1 2.1 1.9 2.3 2.1 2.2 1.6 1.3 0.8 1.1
3.2 2.2 1.6 1.0 0.6 0.9 1.5 2.0 2.0 3.0 3.9 4.1 4.2 4.1 4.8 5.0 4.6 4.3 2.8 2.6 2.5 2.1 2.0 2.5 2.6 2.2 2.4 1.5 2.2 1.6 0.9 0.9
2.9 3.3 2.3 1.7 1.3 0.9 0.7 1.4 2.0 2.6 2.4 2.9 3.6 4.0 3.6 3.6 3.9 3.2 2.8 3.0 3.5 2.4 2.3 3.0 2.5 3.1 2.6 2.5 2.5 0.9 1.0 1.8
3.0 3.9 3.2 2.2 1.6 1.4 1.8 1.9 1.8 1.7 2.6 3.0 3.0 3.0 3.5 3.6 3.5 3.0 2.9 3.1 2.3 2.0 2.1 2.5 2.2 2.2 2.4 2.2 1.2 0.6 0.7 1.5
3.3 2.2 3.2 2.7 2.5 2.5 1.9 2.2 2.4 3.0 3.1 3.1 3.7 3.9 4.4 4.6 4.5 4.7 2.8 1.9 2.1 2.2 2.8 2.6 1.4 2.5 1.3 1.5 1.2 0.7 1.6 1.1
3.7 3.2 2.2 3.5 3.4 3.9 3.1 1.9 2.4 2.8 3.6 4.3 4.5 4.6 4.6 4.2 3.5 3.1 2.5 3.1 2.6 3.1 3.0 2.5 0.8 2.0 1.9 2.2 1.4 1.3 1.6 1.3
1.1 1.8 2.3 2.8 3.2 3.8 4.1 2.7 1.9 2.9 4.0 4.6 5.1 4.8 4.1 3.7 4.0 3.4 2.6 4.2 3.7 3.9 3.4 3.6 2.6 1.8 1.1 1.5 1.6 1.0 1.0 1.7
0.2 0.7 1.0 2.3 2.2 2.5 3.3 2.5 1.4 2.1 3.9 4.4 4.6 4.6 4.5 4.4 3.9 4.3 3.6 3.4 4.0 3.4 2.4 1.5 2.0 1.2 1.2 1.0 1.1 1.0 1.2 1.8
0.6 -0.5 -1.1 -0.9 0.2 1.1 2.4 2.4 2.2 2.2 3.1 4.0 4.2 4.5 5.1 4.0 3.4 3.6 3.4 3.9 3.6 1.8 1.3 1.1 0.4 0.8 0.9 1.1 1.1 1.1 1.6 1.9
1.6 0.8 0.1 -0.6 0.2 0.5 -0.3 0.2 -0.5 0.8 1.7 1.7 3.4 2.4 2.7 2.8 2.4 1.7 1.6 1.7 1.1 1.4 1.3 0.8 0.5 0.6 0.4 -0.3 1.2 1.1 1.6 2.3
1.0 0.1 1.8 0.8 0.0 -1.3 -1.5 -2.4 -2.2 -0.2 0.4 0.3 1.3 1.8 2.0 1.4 0.9 0.3 0.6 0.6 -0.2 -0.2 -0.1 0.3 0.5 0.1 -0.8 -0.5 -0.2 1.6 2.0 1.7
1.4 0.9 -1.2 -0.8 -2.1 -2.6 -3.7 -2.9 -1.9 -0.9 -0.2 -0.2 0.1 1.0 0.5 0.1 0.8 0.5 -0.5 0.1 -0.2 -0.4 -0.3 0.4 0.9 0.6 -0.9 -0.6 -0.3 0.9 1.5 2.4
Wind_Speed
8 10 9 10 9 10 9 8 8 6 5 4 3 3 2 3 7 10 14 14 14 12 10 10 13 5 4 4 4 2 2 4
8 10 9 10 9 11 10 12 11 8 6 7 3 2 2 2 6 11 9 10 11 10 5 6 8 6 7 7 3 4 1 3
9 9 10 9 11 10 12 11 12 9 8 7 4 2 2 2 2 3 10 10 6 9 8 5 7 4 5 6 5 3 2 4
11 14 12 9 10 11 11 12 10 9 9 3 1 2 2 2 2 2 5 7 9 10 12 9 7 5 6 6 6 7 5 4
10 12 13 14 13 11 12 12 11 9 6 6 6 8 8 6 4 2 4 7 9 12 13 13 8 7 6 8 6 4 5 5
16 16 16 14 12 13 12 13 12 12 11 9 7 8 6 5 3 5 6 5 12 13 16 12 7 7 6 8 6 6 4 4
15 12 11 11 9 11 12 14 14 15 15 16 14 14 9 9 10 9 7 4 6 10 12 11 12 7 7 8 9 9 9 5
14 14 14 13 14 15 14 16 18 18 18 17 18 16 14 15 13 10 9 6 5 8 8 7 6 9 8 7 7 9 9 9
17 18 17 16 17 17 18 18 19 20 19 19 16 17 11 13 13 9 6 8 7 6 9 10 11 8 6 6 5 6 8 8
19 18 18 16 16 20 21 21 20 20 21 18 18 15 16 13 11 7 6 7 7 6 6 7 7 6 10 10 9 11 9 9
18 17 18 18 19 19 18 19 21 21 17 17 14 14 14 12 8 8 8 7 5 5 5 5 6 7 10 9 6 8 10 7
15 18 19 21 18 17 18 18 20 17 17 16 15 16 13 10 12 14 9 7 8 9 8 7 7 8 6 7 7 7 10 7
13 15 17 17 19 18 20 21 20 21 18 18 18 16 15 15 15 17 14 14 12 10 8 8 9 9 9 10 10 9 9 8
10 8 12 17 18 18 18 19 22 20 18 19 18 18 18 20 20 18 16 15 14 14 13 10 9 10 10 9 8 8 7 7
9 11 14 15 16 18 18 19 20 18 19 19 19 19 20 19 16 16 15 15 17 16 10 10 9 9 9 8 8 7 6 6
7 7 10 11 11 13 15 17 15 14 16 17 20 18 15 12 12 12 12 12 13 8 8 7 8 9 7 9 8 8 8 7
11 9 8 9 12 14 12 11 10 13 16 17 13 9 9 9 8 8 8 7 7 7 8 9 9 5 10 11 10 8 7 8
11 11 15 11 12 10 9 7 7 10 11 9 9 8 9 9 9 9 8 9 9 9 9 9 8 6 13 13 11 7 7 7
10 10 10 9 6 5 8 7 8 9 8 8 9 10 9 10 10 9 8 6 8 8 8 7 7 5 11 12 12 8 7 7
Wind_Direction
185 167 163 162 154 158 159 161 169 180 161 102 51 36 282 201 139 173 169 185 163 184 195 182 177 164 169 163 157 154 164 169
172 183 170 167 162 169 168 164 165 168 185 178 166 205 248 228 175 188 188 179 167 187 196 173 166 181 190 187 131 162 132 136
172 175 175 182 171 177 175 176 171 178 188 196 194 209 264 257 243 258 224 223 187 198 193 190 179 176 177 166 161 122 123 178
187 190 189 178 179 184 184 182 179 186 180 150 124 109 341 295 281 234 230 233 228 217 209 191 189 178 189 188 174 167 159 202
192 189 198 189 189 182 185 184 182 190 182 180 193 220 223 229 229 262 271 236 229 216 210 205 189 202 189 199 189 185 155 169
191 195 201 195 181 182 187 189 191 196 195 195 191 210 215 226 224 230 242 235 224 213 211 202 202 205 201 188 183 195 205 167
206 189 185 195 186 185 186 190 198 199 200 201 201 205 202 207 219 224 232 220 220 217 210 207 206 201 203 204 201 199 203 212
200 190 185 183 190 195 190 191 199 202 207 209 210 210 208 216 219 221 220 223 221 223 205 204 208 210 216 194 199 221 201 207
199 201 197 193 190 195 196 199 206 204 205 211 212 216 219 222 226 227 223 228 232 216 208 210 206 172 189 187 208 218 211 212
199 201 199 199 197 198 200 201 207 207 208 208 211 212 219 224 226 233 232 235 232 216 222 216 205 193 212 208 213 205 197 203
198 198 203 203 205 204 204 209 210 209 208 213 215 214 224 229 225 222 222 225 213 213 183 181 192 197 217 212 215 196 192 200
200 195 200 206 206 202 206 211 216 213 214 211 213 218 216 219 226 236 206 163 174 202 194 197 187 215 189 195 200 190 191 170
203 200 196 199 204 202 201 209 212 213 210 210 209 210 201 203 208 208 181 184 187 183 200 221 179 186 195 201 197 187 185 171
199 181 195 200 202 203 203 206 215 212 208 208 207 206 206 211 222 213 201 203 191 194 210 217 203 198 195 194 189 169 165 169
202 199 204 206 201 202 203 208 214 207 206 206 207 204 209 218 220 220 209 201 199 204 198 182 187 183 185 176 164 156 157 163
211 219 199 197 199 203 206 214 211 198 199 204 209 208 207 205 202 200 203 201 202 184 170 156 162 166 168 172 166 157 158 158
214 204 226 185 197 203 200 204 191 180 193 201 190 169 165 174 170 159 152 152 144 150 145 147 153 161 169 153 145 151 152 151
215 194 202 204 205 193 186 173 147 168 182 173 174 157 165 153 153 149 150 144 136 134 139 145 141 133 152 152 135 140 139 133
230 221 187 197 167 134 121 130 136 138 152 150 144 146 142 140 142 140 128 139 131 131 123 125 130 141 143 130 121 115 110 106